GW3542 Weather Reports


time (UTC)temp
C
wind
direction
speed
KPH
gust
KPH
rain 1hr
cm
rain 24hr
cm
rain mn
cm
humidity
%
barometer
mb
20260505140523 22 247 4.8 16.1 0.00 0.00 0.00 54 1016.8
20260505124536 18 287 8.0 16.1 0.00 0.00 0.00 61 1016.9
20260505123520 18 243 3.2 11.3 0.00 0.00 0.00 63 1017.0
20260505122608 18 241 3.2 11.3 0.00 0.00 0.00 64 1017.0
20260505121555 17 252 3.2 11.3 0.00 0.00 0.00 65 1016.9
20260505120541 17 222 6.4 17.7 0.00 0.00 0.00 67 1016.9
20260505115528 16 265 3.2 11.3 0.00 0.00 0.00 68 1016.8
20260505114616 16 265 3.2 9.7 0.00 0.00 0.00 69 1016.8
20260505113604 16 256 3.2 11.3 0.00 0.00 0.00 70 1016.7
20260505112550 15 253 3.2 6.4 0.00 0.00 0.00 71 1016.7
20260505111537 15 211 3.2 11.3 0.00 0.00 0.00 71 1016.7
20260505110526 15 213 1.6 11.3 0.00 0.00 0.00 72 1016.6
20260505101518 15 250 1.6 9.7 0.00 0.00 0.00 73 1016.1
20260505100605 15 226 3.2 9.7 0.00 0.00 0.00 73 1016.0
20260505095552 15 282 1.6 12.9 0.00 0.00 0.00 73 1015.7
20260505094559 15 264 3.2 9.7 0.00 0.00 0.00 73 1015.7
20260505093526 15 269 1.6 6.4 0.00 0.00 0.00 73 1015.6
20260505092614 15 253 1.6 6.4 0.00 0.00 0.00 73 1015.5
20260505091555 15 248 3.2 12.9 0.00 0.00 0.00 73 1015.4
20260505090543 15 254 4.8 11.3 0.00 0.00 0.00 72 1015.4
20260505085529 15 259 3.2 14.5 0.00 0.00 0.00 72 1015.3
20260505084517 15 253 1.6 9.7 0.00 0.00 0.00 72 1015.4
20260505083604 15 274 3.2 11.3 0.00 0.00 0.00 72 1015.4
20260505082551 15 250 1.6 11.3 0.00 0.00 0.00 71 1015.4
20260505081557 15 247 1.6 4.8 0.00 0.00 0.00 70 1015.3
20260505080525 15 248 3.2 9.7 0.00 0.00 0.00 70 1015.2
20260505075615 15 258 1.6 4.8 0.00 0.00 0.00 69 1015.2
20260505074601 16 260 3.2 11.3 0.00 0.00 0.00 68 1015.1
20260505073546 16 264 3.2 11.3 0.00 0.00 0.00 68 1015.0
20260505072528 16 262 3.2 9.7 0.00 0.00 0.00 68 1014.9
20260505071800 16 250 3.2 9.7 0.00 0.00 0.00 67 1014.9
20260505070558 16 263 1.6 6.4 0.00 0.00 0.00 67 1014.9
20260505065547 16 257 3.2 11.3 0.00 0.00 0.00 66 1014.8
20260505064526 16 213 1.6 6.4 0.00 0.00 0.00 66 1015.0
20260505063616 16 283 1.6 6.4 0.00 0.00 0.00 65 1015.0
20260505062601 16 215 3.2 6.4 0.00 0.00 0.00 64 1015.0
20260505061548 16 235 3.2 9.7 0.00 0.00 0.00 64 1015.0
20260505060535 17 253 3.2 11.3 0.00 0.00 0.00 63 1014.9
20260505055519 17 240 4.8 11.3 0.00 0.00 0.00 62 1015.0
20260505054605 17 271 3.2 16.1 0.00 0.00 0.00 62 1015.1
20260505053553 17 229 6.4 14.5 0.00 0.00 0.00 62 1015.1
20260505052539 17 270 4.8 12.9 0.00 0.00 0.00 61 1015.2
20260505051546 17 251 3.2 14.5 0.00 0.00 0.00 61 1015.3
20260505050613 17 236 3.2 12.9 0.00 0.00 0.00 61 1015.3
20260505041605 17 242 4.8 12.9 0.00 0.00 0.00 61 1015.2
20260505040551 18 247 3.2 11.3 0.00 0.00 0.00 61 1015.2
20260505035539 18 222 4.8 16.1 0.00 0.00 0.00 61 1015.0
20260505034526 18 224 6.4 14.5 0.00 0.00 0.00 61 1015.0
20260505033634 18 261 4.8 11.3 0.00 0.00 0.00 60 1014.9
20260505032622 18 256 6.4 14.5 0.00 0.00 0.00 60 1014.9
20260505031623 18 265 6.4 22.5 0.00 0.00 0.00 60 1014.9
20260505030548 18 251 3.2 12.9 0.00 0.00 0.00 60 1014.9
20260505025638 18 249 4.8 14.5 0.00 0.00 0.00 60 1015.0
20260505024605 18 262 6.4 17.7 0.00 0.00 0.00 61 1014.9
20260505023631 18 250 3.2 16.1 0.00 0.00 0.00 62 1014.9
20260505022535 18 253 3.2 16.1 0.00 0.00 0.00 61 1014.8
20260505021616 18 167 4.8 16.1 0.00 0.00 0.00 62 1014.8
20260505020604 18 252 4.8 14.5 0.00 0.00 0.00 62 1015.0
20260505015550 18 108 3.2 11.3 0.00 0.00 0.00 62 1014.7
20260505014537 19 239 3.2 11.3 0.00 0.00 0.00 62 1014.8
20260505013524 19 183 4.8 9.7 0.00 0.00 0.00 62 1014.7
20260505012627 19 197 1.6 4.8 0.00 0.00 0.00 62 1014.6
20260505011603 19 261 3.2 9.7 0.00 0.00 0.00 61 1014.4
20260505010527 19 194 3.2 14.5 0.00 0.00 0.00 60 1014.3
20260505005616 20 168 3.2 9.7 0.00 0.00 0.00 60 1014.1
20260505004603 20 252 3.2 12.9 0.00 0.00 0.00 59 1013.9
20260505003630 20 266 3.2 14.5 0.00 0.00 0.00 59 1013.8
20260505002617 20 237 4.8 17.7 0.00 0.00 0.00 58 1013.6
20260505001525 20 167 4.8 12.9 0.00 0.00 0.00 58 1013.6
20260505000657 20 147 3.2 14.5 0.00 0.00 0.00 57 1013.4
20260504235559 20 206 3.2 9.7 0.00 0.00 0.00 56 1013.3
20260504234543 21 179 3.2 11.3 0.00 0.00 0.00 55 1013.2
20260504233530 21 178 3.2 9.7 0.00 0.00 0.00 54 1013.0
20260504232539 21 127 3.2 11.3 0.00 0.00 0.00 52 1012.9
20260504231558 22 217 4.8 14.5 0.00 0.00 0.00 50 1012.8
20260504230544 22 239 4.8 17.7 0.00 0.00 0.00 48 1012.7
20260504225532 23 268 8.0 22.5 0.00 0.00 0.00 42 1012.7
20260504224519 25 204 6.4 16.1 0.00 0.00 0.00 33 1012.5
20260504223607 25 251 4.8 12.9 0.00 0.00 0.00 33 1012.5
20260504222552 25 226 6.4 14.5 0.00 0.00 0.00 33 1012.5
20260504221539 25 225 6.4 16.1 0.00 0.00 0.00 33 1012.5
20260504220524 25 223 6.4 16.1 0.00 0.00 0.00 33 1012.5
20260504215613 25 228 4.8 20.9 0.00 0.00 0.00 33 1012.5
20260504214620 26 248 3.2 6.4 0.00 0.00 0.00 32 1012.7
20260504213547 26 256 6.4 20.9 0.00 0.00 0.00 32 1012.8
20260504212534 25 269 6.4 16.1 0.00 0.00 0.00 32 1012.7
20260504211523 26 212 8.0 22.5 0.00 0.00 0.00 32 1012.8
20260504210629 26 265 6.4 12.9 0.00 0.00 0.00 32 1012.8
20260504205556 26 294 4.8 17.7 0.00 0.00 0.00 31 1012.8
20260504204543 26 253 6.4 16.1 0.00 0.00 0.00 31 1012.9
20260504203527 26 166 4.8 11.3 0.00 0.00 0.00 33 1012.9
20260504202616 26 268 3.2 20.9 0.00 0.00 0.00 32 1012.9
20260504201602 26 204 6.4 16.1 0.00 0.00 0.00 33 1012.9
20260504200542 26 297 4.8 14.5 0.00 0.00 0.00 31 1012.9
20260504195530 26 297 4.8 14.5 0.00 0.00 0.00 31 1013.1
20260504194537 26 251 4.8 16.1 0.00 0.00 0.00 31 1013.4
20260504193605 25 221 8.0 17.7 0.00 0.00 0.00 31 1013.4
20260504192553 25 279 4.8 16.1 0.00 0.00 0.00 32 1013.5
20260504191540 25 215 4.8 17.7 0.00 0.00 0.00 33 1013.5
20260504190525 26 274 4.8 14.5 0.00 0.00 0.00 33 1013.8
20260504185614 25 223 6.4 12.9 0.00 0.00 0.00 34 1014.0
20260504184557 25 290 6.4 24.1 0.00 0.00 0.00 33 1014.2
20260504183542 25 257 9.7 22.5 0.00 0.00 0.00 34 1014.3
20260504182530 25 220 4.8 22.5 0.00 0.00 0.00 35 1014.4
20260504181517 25 213 3.2 9.7 0.00 0.00 0.00 36 1014.5
20260504180625 25 297 4.8 17.7 0.00 0.00 0.00 35 1014.7
20260504175551 25 293 4.8 16.1 0.00 0.00 0.00 36 1014.6
20260504174536 24 304 6.4 16.1 0.00 0.00 0.00 36 1014.7
20260504173638 23 238 6.4 16.1 0.00 0.00 0.00 37 1014.9
20260504172604 23 286 9.7 22.5 0.00 0.00 0.00 38 1015.1
20260504171552 24 260 6.4 14.5 0.00 0.00 0.00 38 1014.9
20260504170537 23 271 4.8 12.9 0.00 0.00 0.00 38 1015.2
20260504150554 21 260 3.2 16.1 0.00 0.00 0.00 46 1016.4